{"data":{"norad_id":63668,"epoch":"2026-09-20T03:52:01.451424Z","epoch_age_seconds":181908,"freshness":"STALE","line1":"1 63668U 25085E   26263.16112791  .00192383  00000+0  14628-2 0  9994","line2":"2 63668  43.0014 186.5212 0003127 269.7946  90.2564 15.70927494 80837","mean_motion":15.70927494,"eccentricity":0.0003127,"inclination_deg":43.0014,"raan_deg":186.5212,"arg_perigee_deg":269.7946,"mean_anomaly_deg":90.2564,"bstar":0.0014628,"rev_number":8083,"period_min":91.665592810613,"perigee_km":354.13915769751,"apogee_km":358.35084019966,"semimajor_km":6734.3819989486,"source":"CELESTRAK","updated_at":"2026-09-21T09:00:35.057565Z"}}